Regional Weather Roundup
Issued by NWS

Home | Current Version | Previous Version | Text Only | Print | Product List | Glossary Off
Versions: 1 2 3 4 5 6 7 8 9 10 11 12 13 14 15 16 17 18 19 20 21 22 23 24 25 26 27 28 29 30 31 32 33 34 35 36 37 38 39 40 41 42 43 44 45 46 47 48 49 50

000
ASUS45 KPSR 211710
RWRAZ

ARIZONA REGIONAL HOURLY WEATHER ROUNDUP
NATIONAL WEATHER SERVICE PHOENIX AZ
1000 AM MST SUN DEC 21 2014

NOTE: FAIR INDICATES FEW OR NO CLOUDS BELOW 12,000 FEET WITH NO
SIGNIFICANT WEATHER AND/OR OBSTRUCTIONS TO VISIBILITY.

AZZ001>003-036-211800-
NORTHWEST ARIZONA

CITY           SKY/WX    TMP DP  RH WIND       PRES   REMARKS
BULLHEAD CITY  CLOUDY    46  43  87 E3        30.19R
KINGMAN        PTSUNNY   42  36  79 CALM      30.16R
$$

AZZ004>008-015-016-018-211800-
NORTH CENTRAL ARIZONA

CITY           SKY/WX    TMP DP  RH WIND       PRES   REMARKS
GRAND CANYON   PTSUNNY   34  27  75 CALM      30.14R
PRESCOTT       MOSUNNY   47  27  45 CALM      30.14F
FLAGSTAFF      PTSUNNY   44  27  51 VRB7      30.13R
PAYSON         SUNNY     43  32  65 S5        30.15S
PAGE           CLOUDY    39  30  70 NE5       30.10S
$$

AZZ009>014-017-211800-
NORTHEAST ARIZONA

CITY           SKY/WX    TMP DP  RH WIND       PRES   REMARKS
WINSLOW        FOG       30  28  92 SE5       30.13R VSB 1/4 WCI  25
SAINT JOHNS    MOSUNNY   35  28  75 NE8       30.12R WCI  29
WINDOW ROCK    PTSUNNY   36  26  67 SW5       30.10F WCI  32
SHOW LOW       MOSUNNY   45  21  39 S5        30.15R
$$

AZZ023-211800-
GREATER PHOENIX AREA

CITY           SKY/WX    TMP DP  RH WIND       PRES   REMARKS
PHOENIX        MOSUNNY   55  42  61 SE8       30.12S
BUCKEYE          N/A     48  48 100 S3        30.15S
GLENDALE       MOSUNNY   52  43  71 CALM      30.15R
LUKE AFB       SUNNY     51  44  77 SE1       30.12S
DEER VALLEY    SUNNY     53  39  59 CALM      30.12R
SCOTTSDALE     SUNNY     52  41  66 CALM      30.13F
MESA-FALCON    MOSUNNY   50  37  62 NE7       30.12
MESA-GATEWAY   MOSUNNY   48  41  76 SE6       30.16R
CHANDLER       MOSUNNY   50  43  76 NE5       30.15S
$$

AZZ027-028-211800-
SOUTHWEST MARICOPA COUNTY AND PINAL COUNTY

CITY           SKY/WX    TMP DP  RH WIND       PRES   REMARKS
CASA GRANDE    PTSUNNY   48  39  71 MISG      30.16R
GILA BEND      FAIR      53  42  68 E3        30.15S
$$

AZZ503-504-507>509-211800-
SOUTHEAST ARIZONA

CITY           SKY/WX    TMP DP  RH WIND       PRES   REMARKS
TUCSON         MOSUNNY   48  36  63 CALM      30.16R
DAVIS-MONTHAN  MOSUNNY   48  36  62 S2        30.13R
NOGALES        MOSUNNY   46  34  62 CALM      30.14R
SIERRA VISTA   PTSUNNY   50  28  42 CALM      30.13R
DOUGLAS        PTSUNNY   44  29  55 CALM      30.15R
SAFFORD        PTSUNNY   43  35  73 S3        30.14R
$$

AZZ020-021-025-026-031-211800-
SOUTHWEST ARIZONA

CITY           SKY/WX    TMP DP  RH WIND       PRES   REMARKS
YUMA           PTSUNNY  N/A N/A N/A N8        30.15R
$$

CAZ031-033-041-043-047-048-061-211800-
SOUTHERN CALIFORNIA

CITY           SKY/WX    TMP DP  RH WIND       PRES   REMARKS
DOWNTOWN L.A.  PTSUNNY   56  48  74 CALM      30.15R HAZE
L.A. AIRPORT   CLOUDY    55  48  77 E7        30.15R
SAN DIEGO      MOSUNNY   61  49  64 CALM      30.16R
BURBANK        PTSUNNY   55  47  74 CALM      30.15R
ONTARIO        PTSUNNY   53  47  79 CALM      30.16R HAZE
RIVERSIDE      MOSUNNY   50  46  86 NE5       30.16S FOG
PALM SPRINGS   PTSUNNY   56  45  66 CALM      30.17R
EL CENTRO NAS  MOSUNNY   55  46  71 CALM      30.16R
IMPERIAL       MOSUNNY   55  47  74 CALM      30.15R
BLYTHE         CLOUDY    51  45  79 CALM      30.16R
NEEDLES        CLOUDY    51  41  68 NE5       30.16R
$$

NVZ020-UTZ003-211800-
SOUTHERN NEVADA-UTAH

CITY           SKY/WX    TMP DP  RH WIND       PRES   REMARKS
LAS VEGAS      CLOUDY    48  37  65 SW5       30.12S
SALT LAKE CITY RAIN      39  37  92 SE13      29.99R WCI  31
$$

NMZ009-TXZ055-211800-
NEW MEXICO-WEST TEXAS

CITY           SKY/WX    TMP DP  RH WIND       PRES   REMARKS
ALBUQUERQUE    PTSUNNY   37  28  70 W5        30.06S WCI  33
EL PASO        MOSUNNY   51  30  44 SW14      30.05F
$$


........................KEY........................
SKY/WX - SKY CONDITION/WEATHER
TMP    - TEMPERATURE IN FAHRENHEIT
DP     - DEW POINT IN FAHRENHEIT
RH     - RELATIVE HUMIDITY IN PERCENT
WIND   - DIRECTION AND SPEED IN MILES PER HOUR (MPH)
VRB    - VARIABLE WIND DIRECTION
PRES   - MEAN SEA LEVEL PRESSURE IN INCHES OF MERCURY
         F - FALLING PRESSURE   R - RISING PRESSURE
         S - STEADY PRESSURE
VSB    - VISIBILITY IN MILES
HX     - HEAT INDEX IN FAHRENHEIT
WCI    - WIND CHILL INDEX IN FAHRENHEIT
TC     - TEMPERATURE IN CELSIUS WHICH IS ALSO KNOWN AS
         TEMPERATURE IN CENTIGRADE
AFB    - AIR FORCE BASE
         LUKE AFB IS LUKE AIR FORCE BASE
         DAVIS-MONTHAN IS DAVIS-MONTHAN AIR FORCE BASE
NAS    - NAVAL AIR STATION
         EL CENTRO NAS IS EL CENTRO NAVAL AIR STATION
N/A    - NOT AVAILABLE



USA.gov is the U.S. government's official web portal to all federal, state and local government web resources and services.